"Period start","avg(HW err(1)/warn(2) (#))","avg(Visibility (m))","avg(Weather code (#))","avg(Precip intensity (mm/h))","min(HW err(1)/warn(2) (#))","max(HW err(1)/warn(2) (#))","std(HW err(1)/warn(2) (#))","med(HW err(1)/warn(2) (#))","min(Visibility (m))","max(Visibility (m))","std(Visibility (m))","med(Visibility (m))","min(Weather code (#))","max(Weather code (#))","std(Weather code (#))","med(Weather code (#))","min(Precip intensity (mm/h))","max(Precip intensity (mm/h))","std(Precip intensity (mm/h))","med(Precip intensity (mm/h))"
2017-06-02 00:00:00,2,26380,0,0.00,2,2,0,2,10832,43718,10180,28393,0,0,0,0,0.00,0.00,0.00,0.00
2017-06-02 00:10:00,2,35388,0,0.00,2,2,0,2,24746,47765,7081,36132,0,0,0,0,0.00,0.00,0.00,0.00
2017-06-02 00:20:00,2,39574,0,0.00,2,2,0,2,31533,50000,6173,38876,0,0,0,0,0.00,0.00,0.00,0.00
2017-06-02 00:30:00,2,28319,0,0.00,2,2,0,2,15395,44057,8123,27974,0,0,0,0,0.00,0.00,0.00,0.00
2017-06-02 00:40:00,2,47026,0,0.00,2,2,0,2,37486,50000,3722,47942,0,0,0,0,0.00,0.00,0.00,0.00
2017-06-02 00:50:00,2,43871,0,0.00,2,2,0,2,37782,50000,4007,43851,0,0,0,0,0.00,0.00,0.00,0.00
2017-06-02 01:00:00,2,45149,0,0.00,2,2,0,2,38473,50000,4137,46740,0,0,0,0,0.00,0.00,0.00,0.00
2017-06-02 01:10:00,2,43880,0,0.00,2,2,0,2,31294,50000,7126,46792,0,0,0,0,0.00,0.00,0.00,0.00
2017-06-02 01:20:00,2,38336,0,0.00,2,2,0,2,25934,49891,7967,41100,0,0,0,0,0.00,0.00,0.00,0.00
2017-06-02 01:30:00,2,43864,0,0.00,2,2,0,2,35829,50000,4177,44431,0,0,0,0,0.00,0.00,0.00,0.00
2017-06-02 01:40:00,2,41546,0,0.00,2,2,0,2,26175,49687,7630,43548,0,0,0,0,0.00,0.00,0.00,0.00
2017-06-02 01:50:00,2,43395,0,0.00,2,2,0,2,27660,50000,6513,44546,0,0,0,0,0.00,0.00,0.00,0.00
2017-06-02 02:00:00,2,43365,0,0.00,2,2,0,2,31480,50000,5371,43762,0,0,0,0,0.00,0.00,0.00,0.00
2017-06-02 02:10:00,2,47339,0,0.00,2,2,0,2,39893,50000,3434,48999,0,0,0,0,0.00,0.00,0.00,0.00
2017-06-02 02:20:00,2,44028,0,0.00,2,2,0,2,32831,50000,6255,46708,0,0,0,0,0.00,0.00,0.00,0.00
2017-06-02 02:30:00,2,43416,0,0.00,2,2,0,2,37024,50000,4729,43766,0,0,0,0,0.00,0.00,0.00,0.00
2017-06-02 02:40:00,2,43571,0,0.00,2,2,0,2,32628,50000,6656,47021,0,0,0,0,0.00,0.00,0.00,0.00
2017-06-02 02:50:00,2,48865,0,0.00,2,2,0,2,43906,50000,2278,50000,0,0,0,0,0.00,0.00,0.00,0.00
2017-06-02 03:00:00,2,42768,0,0.00,2,2,0,2,28961,50000,8100,47270,0,0,0,0,0.00,0.00,0.00,0.00
2017-06-02 03:10:00,2,45246,0,0.00,2,2,0,2,34008,50000,5411,48654,0,0,0,0,0.00,0.00,0.00,0.00
2017-06-02 03:20:00,2,44690,0,0.00,2,2,0,2,33770,50000,5298,46056,0,0,0,0,0.00,0.00,0.00,0.00
2017-06-02 03:30:00,2,47121,0,0.00,2,2,0,2,42149,50000,3051,48300,0,0,0,0,0.00,0.00,0.00,0.00
2017-06-02 03:40:00,2,41092,0,0.00,2,2,0,2,29164,50000,6801,41076,0,0,0,0,0.00,0.00,0.00,0.00
2017-06-02 03:50:00,2,40990,0,0.00,2,2,0,2,31146,50000,5987,41654,0,0,0,0,0.00,0.00,0.00,0.00
2017-06-02 04:00:00,2,46908,0,0.00,2,2,0,2,38777,50000,4243,49178,0,0,0,0,0.00,0.00,0.00,0.00
2017-06-02 04:10:00,2,48178,0,0.00,2,2,0,2,43818,50000,2361,50000,0,0,0,0,0.00,0.00,0.00,0.00
2017-06-02 04:20:00,2,47298,0,0.00,2,2,0,2,41968,50000,2974,48553,0,0,0,0,0.00,0.00,0.00,0.00
2017-06-02 04:30:00,2,44203,0,0.00,2,2,0,2,33491,50000,5219,45336,0,0,0,0,0.00,0.00,0.00,0.00
2017-06-02 04:40:00,2,46224,0,0.00,2,2,0,2,31656,50000,5366,48737,0,0,0,0,0.00,0.00,0.00,0.00
2017-06-02 04:50:00,2,47493,0,0.00,2,2,0,2,38957,50000,3453,49170,0,0,0,0,0.00,0.00,0.00,0.00
2017-06-02 05:00:00,2,44727,0,0.00,2,2,0,2,35376,50000,5692,46808,0,0,0,0,0.00,0.00,0.00,0.00
2017-06-02 05:10:00,2,45438,0,0.00,2,2,0,2,32640,50000,5252,46882,0,0,0,0,0.00,0.00,0.00,0.00
2017-06-02 05:20:00,2,46914,0,0.00,2,2,0,2,41072,50000,3215,47946,0,0,0,0,0.00,0.00,0.00,0.00
2017-06-02 05:30:00,2,47448,0,0.00,2,2,0,2,43400,50000,2059,47834,0,0,0,0,0.00,0.00,0.00,0.00
2017-06-02 05:40:00,2,47768,0,0.00,2,2,0,2,43358,50000,2770,50000,0,0,0,0,0.00,0.00,0.00,0.00
2017-06-02 05:50:00,2,45073,0,0.00,2,2,0,2,32219,50000,6967,49945,0,0,0,0,0.00,0.00,0.00,0.00
2017-06-02 06:00:00,2,43527,0,0.00,2,2,0,2,28175,50000,6828,45950,0,0,0,0,0.00,0.00,0.00,0.00
2017-06-02 06:10:00,2,47670,0,0.00,2,2,0,2,37534,50000,3748,50000,0,0,0,0,0.00,0.00,0.00,0.00
2017-06-02 06:20:00,2,45978,0,0.00,2,2,0,2,41190,50000,2982,45584,0,0,0,0,0.00,0.00,0.00,0.00
2017-06-02 06:30:00,2,48824,0,0.00,2,2,0,2,45271,50000,1623,50000,0,0,0,0,0.00,0.00,0.00,0.00
2017-06-02 06:40:00,2,48765,0,0.00,2,2,0,2,44073,50000,2053,49963,0,0,0,0,0.00,0.00,0.00,0.00
2017-06-02 06:50:00,2,48691,0,0.00,2,2,0,2,40039,50000,3031,50000,0,0,0,0,0.00,0.00,0.00,0.00
2017-06-02 07:00:00,2,46978,0,0.00,2,2,0,2,38790,50000,3188,47718,0,0,0,0,0.00,0.00,0.00,0.00
2017-06-02 07:10:00,2,48340,0,0.00,2,2,0,2,42336,50000,2478,50000,0,0,0,0,0.00,0.00,0.00,0.00
2017-06-02 07:20:00,2,47614,0,0.00,2,2,0,2,40863,50000,3265,50000,0,0,0,0,0.00,0.00,0.00,0.00
2017-06-02 07:30:00,2,47856,0,0.00,2,2,0,2,42854,50000,2658,48992,0,0,0,0,0.00,0.00,0.00,0.00
2017-06-02 07:40:00,2,45979,0,0.00,2,2,0,2,38472,50000,4133,46788,0,0,0,0,0.00,0.00,0.00,0.00
2017-06-02 07:50:00,2,45312,0,0.00,2,2,0,2,36212,50000,5047,47078,0,0,0,0,0.00,0.00,0.00,0.00
2017-06-02 08:00:00,2,50000,0,0.00,2,2,0,2,50000,50000,0,50000,0,0,0,0,0.00,0.00,0.00,0.00
2017-06-02 08:10:00,2,48477,0,0.00,2,2,0,2,45037,50000,1840,49334,0,0,0,0,0.00,0.00,0.00,0.00
2017-06-02 08:20:00,2,49558,0,0.00,2,2,0,2,46995,50000,903,50000,0,0,0,0,0.00,0.00,0.00,0.00
2017-06-02 08:30:00,2,49295,0,0.00,2,2,0,2,43132,50000,2055,50000,0,0,0,0,0.00,0.00,0.00,0.00
2017-06-02 08:40:00,2,49719,0,0.00,2,2,0,2,47221,50000,833,50000,0,0,0,0,0.00,0.00,0.00,0.00
2017-06-02 08:50:00,2,45423,0,0.00,2,2,0,2,38265,50000,4260,45856,0,0,0,0,0.00,0.00,0.00,0.00
2017-06-02 09:00:00,2,48607,0,0.00,2,2,0,2,45039,50000,1783,49770,0,0,0,0,0.00,0.00,0.00,0.00
2017-06-02 09:10:00,2,46655,0,0.00,2,2,0,2,33877,50000,5269,49740,0,0,0,0,0.00,0.00,0.00,0.00
2017-06-02 09:20:00,2,44868,0,0.00,2,2,0,2,35410,50000,4649,46056,0,0,0,0,0.00,0.00,0.00,0.00
2017-06-02 09:30:00,2,45886,0,0.00,2,2,0,2,36255,50000,4582,47262,0,0,0,0,0.00,0.00,0.00,0.00
2017-06-02 09:40:00,2,47549,0,0.00,2,2,0,2,41043,50000,2857,48324,0,0,0,0,0.00,0.00,0.00,0.00
2017-06-02 09:50:00,2,33957,0,0.00,2,2,0,2,5729,50000,15711,40632,0,0,0,0,0.00,0.00,0.00,0.00
2017-06-02 10:00:00,2,31008,18,0.01,2,2,0,2,6064,50000,16200,36824,0,61,23,0,0.00,0.10,0.03,0.00
2017-06-02 10:10:00,2,16126,29,0.14,2,2,0,2,3932,30218,9274,15630,0,71,31,20,0.00,0.60,0.22,0.00
2017-06-02 10:20:00,2,10043,74,0.04,2,2,0,2,5542,13125,2503,10099,71,77,3,74,0.00,0.10,0.04,0.05
2017-06-02 10:30:00,2,19941,15,0.00,2,2,0,2,9083,43007,9688,18050,0,77,31,0,0.00,0.00,0.00,0.00
2017-06-02 10:40:00,2,10034,28,0.03,2,2,0,2,6446,13286,2391,11218,0,71,35,0,0.00,0.10,0.03,0.00
2017-06-02 10:50:00,2,12616,64,0.14,2,2,0,2,3110,24657,7609,12810,0,71,21,71,0.00,0.55,0.21,0.00
2017-06-02 11:00:00,2,15288,32,0.02,2,2,0,2,5662,30518,9195,10478,0,77,29,40,0.00,0.05,0.02,0.00
2017-06-02 11:10:00,2,20228,77,0.02,2,2,0,2,5496,41286,11876,17852,77,77,0,77,0.00,0.10,0.03,0.00
2017-06-02 11:20:00,2,28086,14,0.01,2,2,0,2,9310,45413,13538,32351,0,71,28,0,0.00,0.05,0.02,0.00
2017-06-02 11:30:00,2,30367,27,0.00,2,2,0,2,14560,50000,11500,26856,0,77,29,20,0.00,0.00,0.00,0.00
2017-06-02 11:40:00,2,29912,0,0.00,2,2,0,2,16565,46255,9680,28170,0,0,0,0,0.00,0.00,0.00,0.00
2017-06-02 11:50:00,2,31502,37,0.01,2,2,0,2,11408,46873,13155,36743,0,77,37,36,0.00,0.05,0.02,0.00
2017-06-02 12:00:00,2,49756,0,0.00,2,2,0,2,47565,50000,730,50000,0,0,0,0,0.00,0.00,0.00,0.00
2017-06-02 12:10:00,2,49273,0,0.00,2,2,0,2,44980,50000,1581,50000,0,0,0,0,0.00,0.00,0.00,0.00
2017-06-02 12:20:00,2,35972,0,0.00,2,2,0,2,16512,50000,11839,35636,0,0,0,0,0.00,0.00,0.00,0.00
2017-06-02 12:30:00,2,47202,0,0.00,2,2,0,2,42216,50000,2762,47644,0,0,0,0,0.00,0.00,0.00,0.00
2017-06-02 12:40:00,2,49876,0,0.00,2,2,0,2,48762,50000,371,50000,0,0,0,0,0.00,0.00,0.00,0.00
2017-06-02 12:50:00,2,33019,0,0.00,2,2,0,2,25828,49384,6325,31532,0,0,0,0,0.00,0.00,0.00,0.00
2017-06-02 13:00:00,2,43422,0,0.00,2,2,0,2,35179,50000,4364,43344,0,0,0,0,0.00,0.00,0.00,0.00
2017-06-02 13:10:00,2,39088,0,0.00,2,2,0,2,30307,48835,5083,39307,0,0,0,0,0.00,0.00,0.00,0.00
2017-06-02 13:20:00,2,40728,0,0.00,2,2,0,2,32087,48258,5392,41723,0,0,0,0,0.00,0.00,0.00,0.00
2017-06-02 13:30:00,2,36416,0,0.00,2,2,0,2,30196,46140,5588,34344,0,0,0,0,0.00,0.00,0.00,0.00
2017-06-02 13:40:00,2,33903,0,0.00,2,2,0,2,25840,39510,4081,34507,0,0,0,0,0.00,0.00,0.00,0.00
2017-06-02 13:50:00,2,32460,0,0.00,2,2,0,2,28543,38059,2900,31312,0,0,0,0,0.00,0.00,0.00,0.00
2017-06-02 14:00:00,2,27716,0,0.00,2,2,0,2,22669,34725,3362,27192,0,0,0,0,0.00,0.00,0.00,0.00
2017-06-02 14:10:00,2,28060,0,0.00,2,2,0,2,24801,33482,2607,27836,0,0,0,0,0.00,0.00,0.00,0.00
2017-06-02 14:20:00,2,30159,0,0.00,2,2,0,2,25058,34310,3115,30534,0,0,0,0,0.00,0.00,0.00,0.00
2017-06-02 14:30:00,2,29243,0,0.00,2,2,0,2,24312,34201,3135,28822,0,0,0,0,0.00,0.00,0.00,0.00
2017-06-02 14:40:00,2,25968,0,0.00,2,2,0,2,22638,29568,2388,25576,0,0,0,0,0.00,0.00,0.00,0.00
2017-06-02 14:50:00,2,28066,0,0.00,2,2,0,2,24691,32294,2130,27952,0,0,0,0,0.00,0.00,0.00,0.00
2017-06-02 15:00:00,2,31990,0,0.00,2,2,0,2,22867,42262,6659,32860,0,0,0,0,0.00,0.00,0.00,0.00
2017-06-02 15:10:00,2,28519,0,0.00,2,2,0,2,24726,35874,3705,27247,0,0,0,0,0.00,0.00,0.00,0.00
2017-06-02 15:20:00,2,36128,0,0.00,2,2,0,2,32782,39973,2813,35659,0,0,0,0,0.00,0.00,0.00,0.00
2017-06-02 15:30:00,2,40915,0,0.00,2,2,0,2,33241,50000,5885,40616,0,0,0,0,0.00,0.00,0.00,0.00
2017-06-02 15:40:00,2,34727,0,0.00,2,2,0,2,27383,38888,3729,35742,0,0,0,0,0.00,0.00,0.00,0.00
2017-06-02 15:50:00,2,33339,0,0.00,2,2,0,2,29619,37908,2358,33691,0,0,0,0,0.00,0.00,0.00,0.00
2017-06-02 16:00:00,2,33809,0,0.00,2,2,0,2,26551,38644,3794,35106,0,0,0,0,0.00,0.00,0.00,0.00
2017-06-02 16:10:00,2,29901,0,0.00,2,2,0,2,20727,36659,5658,32077,0,0,0,0,0.00,0.00,0.00,0.00
2017-06-02 16:20:00,2,37165,0,0.00,2,2,0,2,33644,44427,3580,35794,0,0,0,0,0.00,0.00,0.00,0.00
2017-06-02 16:30:00,2,32291,0,0.00,2,2,0,2,23762,41128,5338,32018,0,0,0,0,0.00,0.00,0.00,0.00
2017-06-02 16:40:00,2,24110,0,0.00,2,2,0,2,19842,31709,3304,23154,0,0,0,0,0.00,0.00,0.00,0.00
2017-06-02 16:50:00,2,27463,0,0.00,2,2,0,2,21905,35032,4212,26450,0,0,0,0,0.00,0.00,0.00,0.00
2017-06-02 17:00:00,2,29427,0,0.00,2,2,0,2,24336,33964,3306,29326,0,0,0,0,0.00,0.00,0.00,0.00
2017-06-02 17:10:00,2,28619,0,0.00,2,2,0,2,22299,32479,2994,28652,0,0,0,0,0.00,0.00,0.00,0.00
2017-06-02 17:20:00,2,28807,0,0.00,2,2,0,2,21981,36660,4887,27484,0,0,0,0,0.00,0.00,0.00,0.00
2017-06-02 17:30:00,2,35829,0,0.00,2,2,0,2,31205,41729,3828,35338,0,0,0,0,0.00,0.00,0.00,0.00
2017-06-02 17:40:00,2,35434,0,0.00,2,2,0,2,30179,38114,2240,36144,0,0,0,0,0.00,0.00,0.00,0.00
2017-06-02 17:50:00,2,31675,0,0.00,2,2,0,2,24691,39529,4334,31222,0,0,0,0,0.00,0.00,0.00,0.00
2017-06-02 18:00:00,2,33717,0,0.00,2,2,0,2,28188,40974,3763,32783,0,0,0,0,0.00,0.00,0.00,0.00
2017-06-02 18:10:00,2,32798,0,0.00,2,2,0,2,27618,40575,4011,32617,0,0,0,0,0.00,0.00,0.00,0.00
2017-06-02 18:20:00,2,32681,0,0.00,2,2,0,2,25224,45831,5918,32362,0,0,0,0,0.00,0.00,0.00,0.00
2017-06-02 18:30:00,2,38604,0,0.00,2,2,0,2,28917,46269,5862,38348,0,0,0,0,0.00,0.00,0.00,0.00
2017-06-02 18:40:00,2,35569,0,0.00,2,2,0,2,30933,41964,3518,35132,0,0,0,0,0.00,0.00,0.00,0.00
2017-06-02 18:50:00,2,38771,0,0.00,2,2,0,2,28992,46644,5019,37524,0,0,0,0,0.00,0.00,0.00,0.00
2017-06-02 19:00:00,2,37146,0,0.00,2,2,0,2,29546,46176,5068,36738,0,0,0,0,0.00,0.00,0.00,0.00
2017-06-02 19:10:00,2,32899,0,0.00,2,2,0,2,28119,38028,3532,33902,0,0,0,0,0.00,0.00,0.00,0.00
2017-06-02 19:20:00,2,41161,0,0.00,2,2,0,2,34919,46785,3475,40352,0,0,0,0,0.00,0.00,0.00,0.00
2017-06-02 19:30:00,2,40556,0,0.00,2,2,0,2,33650,50000,5072,39390,0,0,0,0,0.00,0.00,0.00,0.00
2017-06-02 19:40:00,2,37194,0,0.00,2,2,0,2,27966,44573,5203,36484,0,0,0,0,0.00,0.00,0.00,0.00
2017-06-02 19:50:00,2,37533,0,0.00,2,2,0,2,29319,45267,5917,39425,0,0,0,0,0.00,0.00,0.00,0.00
2017-06-02 20:00:00,2,36171,0,0.00,2,2,0,2,30035,42527,3603,35934,0,0,0,0,0.00,0.00,0.00,0.00
2017-06-02 20:10:00,2,40044,0,0.00,2,2,0,2,35388,46332,3141,40236,0,0,0,0,0.00,0.00,0.00,0.00
2017-06-02 20:20:00,2,40872,0,0.00,2,2,0,2,33631,50000,5866,39852,0,0,0,0,0.00,0.00,0.00,0.00
2017-06-02 20:30:00,2,38072,0,0.00,2,2,0,2,30505,47120,4903,38682,0,0,0,0,0.00,0.00,0.00,0.00
2017-06-02 20:40:00,2,43500,0,0.00,2,2,0,2,39298,46599,2088,43684,0,0,0,0,0.00,0.00,0.00,0.00
2017-06-02 20:50:00,2,37587,0,0.00,2,2,0,2,33343,42395,3003,36972,0,0,0,0,0.00,0.00,0.00,0.00
2017-06-02 21:00:00,2,38054,0,0.00,2,2,0,2,30439,46404,3934,37256,0,0,0,0,0.00,0.00,0.00,0.00
2017-06-02 21:10:00,2,40747,0,0.00,2,2,0,2,34050,49502,5724,39416,0,0,0,0,0.00,0.00,0.00,0.00
2017-06-02 21:20:00,2,33437,0,0.00,2,2,0,2,25011,45330,6451,33330,0,0,0,0,0.00,0.00,0.00,0.00
2017-06-02 21:30:00,2,43864,0,0.00,2,2,0,2,33783,49926,5626,46108,0,0,0,0,0.00,0.00,0.00,0.00
2017-06-02 21:40:00,2,36516,0,0.00,2,2,0,2,21466,47037,8054,36967,0,0,0,0,0.00,0.00,0.00,0.00
2017-06-02 21:50:00,2,40957,0,0.00,2,2,0,2,31004,46378,4419,41982,0,0,0,0,0.00,0.00,0.00,0.00
2017-06-02 22:00:00,2,34231,0,0.00,2,2,0,2,25453,44247,6126,34978,0,0,0,0,0.00,0.00,0.00,0.00
2017-06-02 22:10:00,2,38432,0,0.00,2,2,0,2,22380,47622,7638,40529,0,0,0,0,0.00,0.00,0.00,0.00
2017-06-02 22:20:00,2,37984,0,0.00,2,2,0,2,31915,49978,5726,36512,0,0,0,0,0.00,0.00,0.00,0.00
2017-06-02 22:30:00,2,30804,0,0.00,2,2,0,2,23169,42902,5445,29761,0,0,0,0,0.00,0.00,0.00,0.00
2017-06-02 22:40:00,2,38888,0,0.00,2,2,0,2,26435,47146,5766,39556,0,0,0,0,0.00,0.00,0.00,0.00
2017-06-02 22:50:00,2,35589,0,0.00,2,2,0,2,30911,46736,4205,34989,0,0,0,0,0.00,0.00,0.00,0.00
2017-06-02 23:00:00,2,33525,0,0.00,2,2,0,2,26514,40919,4946,32202,0,0,0,0,0.00,0.00,0.00,0.00
2017-06-02 23:10:00,2,38129,0,0.00,2,2,0,2,25184,46445,6275,38714,0,0,0,0,0.00,0.00,0.00,0.00
2017-06-02 23:20:00,2,38808,0,0.00,2,2,0,2,23575,50000,9948,41240,0,0,0,0,0.00,0.00,0.00,0.00
2017-06-02 23:30:00,2,35994,0,0.00,2,2,0,2,24924,45537,7487,36814,0,0,0,0,0.00,0.00,0.00,0.00
2017-06-02 23:40:00,2,35935,0,0.00,2,2,0,2,27181,43592,4927,35312,0,0,0,0,0.00,0.00,0.00,0.00
2017-06-02 23:50:00,2,33067,0,0.00,2,2,0,2,18442,47529,10483,32136,0,0,0,0,0.00,0.00,0.00,0.00
